Hourly Data Report for June 14, 2021

TORONTO CITY
ONTARIO
Current Station Operator: ECCC - MSC

43°40'00.000" N
79°24'00.000" W
112.50 m
6158355
71508
XTO

Download Data

Hourly Data (June 2021)
Hourly Data Report for June 14, 2021
TIME
LST
Temp Definition
°C
Dew Point Definition
°C
Rel Hum Definition
%
Precip. Amount Definition
mm

Wind Dir Definition
10's deg

Wind Spd Definition
km/h
Visibility Definition
km
Stn Press Definition
kPa
Hmdx Definition


Wind Chill Definition


Weather Definition


00:00 18.5 12.5 68 0.0       99.51     LegendNANA
01:00 18.6 12.4 67 0.0       99.47     LegendNANA
02:00 17.9 11.8 67 0.0       99.45     LegendNANA
03:00 18.0 11.6 66 0.0       99.45     LegendNANA
04:00 17.6 11.5 67 0.0       99.44     LegendNANA
05:00 18.6 11.1 62 0.0       99.43     LegendNANA
06:00 18.8 11.2 62 0.0       99.50     LegendNANA
07:00 19.2 11.2 60 0.0       99.51     LegendNANA
08:00 16.9 12.4 75 0.9       99.58     LegendNANA
09:00 17.0 13.9 82 0.8       99.57     LegendNANA
10:00 17.8 14.3 80 0.0       99.59     LegendNANA
11:00 19.7 13.6 68 0.0       99.60     LegendNANA
12:00 20.2 14.3 69 0.0       99.55     LegendNANA
13:00 19.2 14.2 73 0.0       99.49     LegendNANA
14:00 18.6 15.4 81 0.6       99.44     LegendNANA
15:00 19.2 15.1 77 0.1       99.44     LegendNANA
16:00 20.5 15.2 72 0.1       99.43 25   LegendNANA
17:00 20.5 13.9 66 0.0       99.40     LegendNANA
18:00 21.3 11.0 52 0.0       99.52     LegendNANA
19:00 19.4 11.3 59 0.0       99.59     LegendNANA
20:00 18.6 12.0 66 0.0       99.60     LegendNANA
21:00 18.5 12.0 66 0.0       99.64     LegendNANA
22:00 18.0 12.2 69 0.0       99.63     LegendNANA
23:00 17.6 12.4 71 0.0       99.61     LegendNANA

Notes on Data Quality.

Legend

  • E = Estimated
  • M = Missing
  • NA = Not Available*
  • [empty] = Indicates an unobserved value
Date modified: